星链-30996 (STARLINK-30996 )

导读 | 星芒AI

STARLINK-30996 是 SpaceX Starlink 卫星互联网项目中的一颗低轨卫星,属于第三代星链卫星(v1.5 或 v2 架构)。它运行在约 550 公里的近地轨道上,旨在为全球用户提供高速、低延迟的互联网服务。该卫星配备了先进相控阵天线和激光通信系统,以提升网络性能和卫星间通信能力。作为星链星座的一部分,STARLINK-30996 有助于扩大覆盖范围,改善偏远地区的网络接入,并支持 Starlink 的持续扩展与优化。

基本信息
目录编号:
59023
目录名称:
STARLINK-30996
国际标识:
2024-038A
轨道中心:
EARTH
卫星名称:
星链-30996
卫星全名:
星链-30996 (STARLINK-30996 )
卫星状态:
在轨 (已飞行614 天)
发射日期:
2024-02-25 UTC
国别 :
美国 (US)
星等 :
--
轨道信息
数据来源 国际轨道数据
星历时间: 2025-10-31T00:11:06+0800
21小时前
查看轨道信息
半长轴: 6861.21km
偏心率: 0.0001491
轨道倾角: 43.004°
近地点辐角 271.806°
升交点赤经 41.309°
平近点角 88.262°
近地点: 482.051km
远地点: 484.099km
周期: 94.267分钟
每日圈数: 15.275721
详细信息
固有亮度:
5
最大亮度:
0.3
卫星平台:
Starlink v2.0 mini
覆盖范围:
全球
运营商:
太空探索技术公司
运营商所在国:
美国
制造商(研发单位):
太空探索技术公司
制造商所在国:
美国
使用方式:
暂无
卫星简介
星链(Starlink)计划是由太空探索技术公司(SpaceX)提出的一个巨型低轨卫星互联网星座项目,计划在2019年至2024年间在太空搭建由约1.2万颗卫星组成的“星链”网络,其中1584颗将部署在地球上空550千米处的近地轨道,并从2020年开始工作。该卫星仍在工作。
2D轨道图
3D轨道图
轨道高度分析图
轨道倾角分析图
轨道综合分析图
查看轨道综合分析图